Regional Weather Roundup
Issued by NWS

Home | Current Version | Previous Version | Graphics & Text | Print | Product List | Glossary On
Versions: 1 2 3 4 5 6 7 8 9 10 11 12 13 14 15 16 17 18 19 20 21 22 23 24 25 26 27 28 29 30 31 32 33 34 35 36 37 38 39 40 41 42 43 44 45 46 47 48 49 50
000
ASUS43 KLOT 021212
RWRIL

ILLINOIS REGIONAL WEATHER ROUNDUP
NATIONAL WEATHER SERVICE CHICAGO/ROMEOVILLE IL
700 AM CDT WED SEP 02 2015

NOTE: "FAIR" INDICATES FEW OR NO CLOUDS BELOW 12,000 FEET WITH NO
SIGNIFICANT WEATHER AND/OR OBSTRUCTIONS TO VISIBILITY.

* THESE STATIONS ARE NOT UNDER NWS QUALITY CONTROL. THEY ALSO MAY NOT
  REPORT WEATHER SUCH AS PRECIPITATION OR FOG.

ILZ001-002-007-009-015-016-024-021300-
NORTHWEST ILLINOIS

CITY           SKY/WX    TMP DP  RH WIND       PRES   REMARKS
MOLINE         PTCLDY    72  67  84 CALM      30.05R
6HR MIN TEMP:  70; 6HR MAX TEMP:  76;

STERLING*      CLEAR     70  68  94 CALM      30.04R
SAVANNA*       CLEAR     69  67  93 S3        30.04R FOG
$$

ILZ003-004-008-010-011-017-018-021300-
NORTH CENTRAL ILLINOIS

CITY           SKY/WX    TMP DP  RH WIND       PRES   REMARKS
ROCKFORD       PTCLDY    69  66  90 S5        30.06R FOG
6HR MIN TEMP:  69; 6HR MAX TEMP:  73;

FREEPORT*      CLEAR     69  67  93 SW6       30.06S
ROCHELLE*        N/A     64  64  99 CALM      30.06S FOG
DE KALB*       CLEAR     69  67  92 SW6       30.07R
PERU*          CLEAR     71  69  93 SW7       30.07R FOG
$$

ILZ005-006-012>014-019>023-021300-
NORTHEAST ILLINOIS

CITY           SKY/WX    TMP DP  RH WIND       PRES   REMARKS
CHICAGO-OHARE  PTCLDY    72  68  87 SW5       30.04R
6HR MIN TEMP:  72; 6HR MAX TEMP:  76;

CHICAGO-MIDWAY PTCLDY    74  68  81 SW7       30.05R
6HR MIN TEMP:  73; 6HR MAX TEMP:  78;

AURORA         CLEAR     66  65  96 CALM      30.06S FOG
6HR MIN TEMP:  64; 6HR MAX TEMP:  73;

LANSING*       CLEAR     67  66  97 S3        30.07R FOG
JOLIET*        CLEAR     69  69  99 SW3       30.07R FOG
WAUKEGAN       CLEAR     72  68  87 W3        30.04R
6HR MIN TEMP:  72; 6HR MAX TEMP:  76;

DUPAGE AIRPORT CLEAR     70  67  90 SW6       30.05R FOG
6HR MIN TEMP:  67; 6HR MAX TEMP:  74;

KANKAKEE*      CLEAR     69  68  97 CALM      30.09R FOG
WHEELING       CLEAR     73  67  81 CALM      30.05R
6HR MIN TEMP:  73; 6HR MAX TEMP:  77;

MORRIS*        FOG       67  66  97 S5        30.06R VSB 1/4
ROMEOVILLE*    CLEAR     67  67  99 SW5       30.07R FOG
NORTHERLY ISL    N/A     74  67  78 SW3         N/A
$$

LMZ740>746-021300-
SOUTHERN LAKE MICHIGAN

STATION/POSITION SKY/WX   TEMP    WIND        PRES    VSBY  WAVE
                          AIR SEA DIR/SP/G                  HT/PER
                          (F)     (DEG/KT/KT) (MB)    (MI)  (FT/S)
SOUTHERN BUOY              72 70  210/ 10/ 12 1016.2R         1/ 3
WILMETTE HARBOR            69 60  350/  4/  6   N/A           0
HARRISON CRIB              74     200/  8/ 10   N/A
BURNHAM HARBOR             74     240/  3/  9   N/A
CALUMET HARBOR             72     210/  3/  5   N/A
BURNS HARBOR               72     190/  9/ 11 1017.9R
MICHIGAN CITY              73     180/  8/ 10   N/A
MICHIGAN CITY 6N           73 72  210/  6/  8   N/A           1/ 3
ST. JOSEPH                 73 72  250/  8/ 10   N/A           1/ 3
$$

ILZ025>027-034>036-040-047-049-050-058-095>099-021300-
WEST-CENTRAL ILLINOIS

CITY           SKY/WX    TMP DP  RH WIND       PRES   REMARKS
QUINCY         PTCLDY    71  68  90 S6        30.07R FOG
GALESBURG*     PTCLDY    68  67  96 S3        30.08R FOG
MACOMB*        MOCLDY    67  66  99 CALM      30.09R FOG
JACKSONVILLE*  CLEAR     74  71  90 S6        30.08R
PITTSFIELD*    CLEAR     70  68  94 CALM      30.09R FOG
$$

ILZ028>032-037-038-041>044-048-051>054-059>061-021300-
CENTRAL ILLINOIS

CITY           SKY/WX    TMP DP  RH WIND       PRES   REMARKS
PONTIAC        CLEAR     72  71  97 SW5       30.10R FOG
BLOOMINGTON    CLEAR     71  70  97 SW7       30.11R
DECATUR        CLEAR     71  67  87 SW6       30.11R
PEORIA         CLEAR     72  68  87 S3        30.08R FOG
6HR MIN TEMP:  72; 6HR MAX TEMP:  76;

LACON*         CLEAR     68  66  94 CALM      30.07R FOG
LINCOLN*       CLEAR     69  67  94 CALM      30.09R FOG
SPRINGFIELD    CLEAR     72  69  90 S5        30.09R
6HR MIN TEMP:  71; 6HR MAX TEMP:  76;

TAYLORVILLE    CLEAR     68  66  94 SE3       30.11R FOG
$$

ILZ033-039-045-046-055>057-062-063-021300-
EAST-CENTRAL ILLINOIS

CITY           SKY/WX    TMP DP  RH WIND       PRES   REMARKS
CHAMPAIGN      CLEAR     69  67  93 S3        30.11R FOG
RANTOUL*       CLEAR     71  69  93 CALM      30.11R FOG
MATTOON        CLEAR     71  67  87 SW5       30.11R FOG
PARIS*         CLEAR     66  66  99 CALM      30.12R FOG
$$

ILZ079-100>102-021300-
SOUTHWEST ILLINOIS

CITY           SKY/WX    TMP DP  RH WIND       PRES   REMARKS
ALTON          CLEAR     66  64  94 CALM      30.11R
BELLEVILLE     CLEAR     68  68 100 E1        30.10R
CAHOKIA*       CLEAR     69  66  90 CALM      30.10R
SPARTA*        CLEAR     70  68  95 CALM      30.12R
$$

ILZ064>066-069>071-074>076-080>082-084>086-088>090-092>094-021300-
SOUTH-CENTRAL ILLINOIS

CITY           SKY/WX    TMP DP  RH WIND       PRES   REMARKS
CARBONDALE     CLEAR     67  66  97 CALM      30.12R FOG
6HR MIN TEMP:  66; 6HR MAX TEMP:  70;

CAIRO*         PTCLDY    67  67 100 SW3       30.13R FOG
EFFINGHAM*     CLEAR     66  64  93 CALM      30.14R FOG
MARION         PTCLDY    68  68 100 SE3       30.12R
MT. VERNON     CLEAR     64  59  82 CALM      30.14R
CENTRALIA*     CLEAR     68  68 100 CALM      30.12R FOG
SALEM*         CLEAR     69  67  94 CALM      30.13R FOG
METROPOLIS*    PTCLDY    67  67 100 CALM      30.13R FOG
$$

ILZ067-068-072-073-078-083-087-091-021300-
SOUTHEAST ILLINOIS

CITY           SKY/WX    TMP DP  RH WIND       PRES   REMARKS
LAWRENCEVILLE  CLEAR     68  67  96 CALM      30.13R FOG
FLORA*         FOG       65  65  98 CALM      30.13R VSB<1/4
FAIRFIELD*     CLEAR     64  64  99 CALM      30.12R FOG
HARRISBURG*    FOG       64  64 100 CALM      30.12R VSB<1/4
ROBINSON*        N/A     64  63  97 CALM      30.14R FOG
CARMI*         FOG       64  64 100 CALM      30.12R VSB<1/4
$$

ABBREVIATIONS USED IN REMARKS
   TC - TEMPERATURE IN CELSIUS
  WCI - WIND CHILL INDEX
   HX - HEAT INDEX
  VSB - VISIBILITY
$$



USA.gov is the U.S. government's official web portal to all federal, state and local government web resources and services.